Location: Br�ttisellen
(47.4227°N, 8.6287°E)
Time: 04:38:55
(UTC+00:00)

Cosmos 2341 Rocket - Pass Details

Date: 09 April 2020
Orbit: 968 x 1004 km, 82.9° (Epoch: 01 June)

Event Time Altitude Azimuth Distance (km) Brightness Sun altitude
Rises 18:58:03 0° 354° (N) 3,736 7.5 -9.1°
Reaches altitude 10° 19:00:43 10° 1° (N) 2,786 6.7 -9.5°
Maximum altitude 19:06:53 48° 74° (ENE) 1,298 4.4 -10.4°
Drops below altitude 10° 19:13:01 10° 148° (SSE) 2,773 5.9 -11.4°
Enters shadow 19:13:29 - 150° (SSE) 2,940 6.0 -11.4°
